Regional Weather Roundup
Issued by NWS

Home | Current Version | Previous Version | Graphics & Text | Print | Product List | Glossary On
Versions: 1 2 3 4 5 6 7 8 9 10 11 12 13 14 15 16 17 18 19 20 21 22 23 24 25 26 27 28 29 30 31 32 33 34 35 36 37 38 39
000
ASUS45 KBOU 231207
RWRCO

WEATHER ROUNDUP FOR COLORADO
NATIONAL WEATHER SERVICE DENVER/BOULDER CO
600 AM MDT THU OCT 23 2014

NOTE: "FAIR" INDICATES FEW OR NO CLOUDS BELOW 12000 FEET WITH NO
SIGNIFICANT WEATHER AND/OR OBSTRUCTIONS TO VISIBILITY.

COZ001>005-013-030-031-231300-
...NORTHWEST COLORADO...

CITY           SKY/WX    TMP DP  RH WIND       PRES   REMARKS
CRAIG          CLEAR     28  25  88 CALM      30.29R
HAYDEN         CLEAR     34  28  80 SE9       30.28R WCI  26
MEEKER         CLEAR     35  32  88 NW5       30.29R WCI  31
MOUNT WERNER   NOT AVBL
STEAMBOAT SPGS CLEAR     32  30  92 CALM      30.30R
WALDEN         PTCLDY    36  30  80 S15       30.28R
$$

COZ006>008-011-231300-
...WEST CENTRAL VALLEYS...

CITY           SKY/WX    TMP DP  RH WIND       PRES   REMARKS
GRAND JUNCTION CLEAR     43  37  79 SE3       30.22R
MONTROSE       CLEAR     39  34  82 S7        30.29R
EAGLE          CLEAR     32  30  93 CALM      30.35S
RIFLE          CLEAR     36  33  89 CALM      30.28R
DELTA          CLEAR     41  35  77 E3        30.27R
NUCLA          NOT AVBL
$$

COZ017>023-064>068-231300-
...SOUTHWEST COLORADO...

CITY           SKY/WX    TMP DP  RH WIND       PRES   REMARKS
DURANGO        PTCLDY    35  32  88 N3        30.30R
CORTEZ         CLEAR     35  32  88 E3        30.28R
PAGOSA SPRINGS PTCLDY    35  35 100 CALM      30.33R FOG
TELLURIDE      PTCLDY    37  32  83 SE6       30.42R
WOLF CREEK PAS PTCLDY    32  21  64 NW3         N/A
$$

COZ009-010-012-014-032>034-037-058>063-231300-
...CENTRAL COLORADO...

CITY           SKY/WX    TMP DP  RH WIND       PRES   REMARKS
ASPEN          CLEAR     33  28  81 S7        30.34R WCI  27
BUENA VISTA    CLEAR     32  27  81 CALM      30.33R
COPPER MTN     CLEAR     34  23  64 W18G25    30.46R WCI  23
BERTHOUD PASS  FAIR      27  23  86 NW38G49   30.41R WCI   9
COTTONWOOD PAS CLEAR     43  23  45 NW8G17    30.37S
GUNNISON       CLEAR     30  27  86 CALM      30.40R
KREMMLING      FOG       30  28  93 CALM        N/A  VSB 1/2
LEADVILLE      CLEAR     32  23  69 N5        30.38R WCI  27
MONARCH PASS   PTCLDY    28  28 100 W28       30.54R WCI  13
SALIDA         CLEAR     38  31  76 W3        30.39R
SUNLIGHT       CLEAR     34  32  93 CALM      30.45R
WILKERSON PASS NOT AVBL
$$

COZ069>075-231300-
...SAN LUIS VALLEY/SANGRE DE CRISTO MOUNTAINS...

CITY           SKY/WX    TMP DP  RH WIND       PRES   REMARKS
ALAMOSA        PTCLDY    27  24  89 CALM      30.31R
LA VETA PASS   CLEAR     34  30  86 S8G20     30.36F WCI  27
SAGUACHE       PTCLDY    34  30  86 NW3       30.33S
$$

COZ035-036-038>040-231300-
...NORTHERN COLORADO FRONT RANGE...

CITY           SKY/WX    TMP DP  RH WIND       PRES   REMARKS
DENVER INTL AP MOCLDY    45  36  70 SW8       30.16R
DMNS CITY PARK   N/A     43  38  82 S5        30.17R
AURORA         PTCLDY    43  35  72 S8        30.17S
FRONT RANGE AP MOCLDY    46  37  71 SW8       30.16S
ERIE MUNI ARPT PTCLDY    39  36  89 CALM      30.15S
BOULDER MUN AP PTCLDY    43  36  75 CALM      30.15S
CENTENNIAL     PTCLDY    40  33  76 S6        30.17S
BROOMFIELD     CLEAR     45  37  76 W7        30.17S
FORT COLLINS   PTCLDY    43  36  75 CALM      30.16R
LONGMONT       PTCLDY    37  33  84 CALM      30.17S FOG
$$

COZ041-046-047-076>085-087-088-231300-
...PIKES PEAK/PALMER DIVIDE AND SOUTHERN FOOTHILLS...

CITY           SKY/WX    TMP DP  RH WIND       PRES   REMARKS
COLO. SPRINGS  PTCLDY    42  36  79 N10       30.21R
A. F. ACADEMY  CLEAR     36  31  82 N10       30.21S
ELLICOTT       NOT AVBL
FALCON         CLEAR     41  32  69 NW8       30.23S
FORT CARSON    CLEAR     41  35  80 N8        30.19R
LIMON          PTCLDY    39  38  96 N6        30.16F
MONUMENT HILL  PTCLDY    37  30  75 SW6       30.21S
TRINIDAD       CLEAR     46  35  65 W15       30.19R
$$

COZ042>045-048>051-090-091-231300-
...NORTHEAST COLORADO...

CITY           SKY/WX    TMP DP  RH WIND       PRES   REMARKS
GREELEY ARPT   MOCLDY    36  27  69 NW5       30.16R
AKRON          CLEAR     45  41  86 W10       30.12R
BURLINGTON     CLEAR     42  40  92 W7        30.13S
WRAY           CLEAR     39  34  81 W8        30.11S
STERLING       CLEAR     34  32  93 W5        30.11S WCI  30
HOLYOKE        CLEAR     41  34  75 W7        30.10S
FORT MORGAN    CLEAR     36  34  92 W7        30.13R
$$

COZ086-089-092>099-231300-
...SOUTHEAST COLORADO...

CITY           SKY/WX    TMP DP  RH WIND       PRES   REMARKS
PUEBLO         CLEAR     43  39  86 SW7       30.15S
LA JUNTA       CLEAR     47  43  86 SW7       30.13R
LAMAR          CLEAR     44  41  89 W3        30.10R
SPRINGFIELD      N/A     45  43  93 W6        30.11R
$$



USA.gov is the U.S. government's official web portal to all federal, state and local government web resources and services.